Time,TemperatureF,DewpointF,PressureIn,WindDirection,WindDirectionDegrees,WindSpeedMPH,WindSpeedGustMPH,Humidity,HourlyPrecipIn,Conditions,Clouds,dailyrainin,SolarRadiationWatts/m^2,SoftwareType,DateUTC
2013-06-27 00:09:00,62.0,54.3,30.02,South,181,0.0,0.0,76,0.00,,,0.00,0,Wunderground v.1.15,2013-06-27 07:09:00,
2013-06-27 00:19:00,62.1,54.8,30.01,South,181,0.0,0.0,77,0.00,,,0.00,0,Wunderground v.1.15,2013-06-27 07:19:00,
2013-06-27 00:29:00,62.1,54.8,30.01,South,182,0.0,0.0,77,0.00,,,0.00,0,Wunderground v.1.15,2013-06-27 07:29:00,
2013-06-27 00:39:00,62.1,54.8,30.00,South,184,0.0,0.0,77,0.00,,,0.00,0,Wunderground v.1.15,2013-06-27 07:39:00,
2013-06-27 00:49:00,62.0,55.1,30.00,South,184,0.0,0.0,78,0.00,,,0.00,0,Wunderground v.1.15,2013-06-27 07:49:00,
2013-06-27 00:59:00,62.0,55.1,30.00,South,182,0.0,0.0,78,0.00,,,0.00,0,Wunderground v.1.15,2013-06-27 07:59:00,
2013-06-27 01:09:00,62.1,55.2,30.00,South,184,0.0,0.0,78,0.00,,,0.00,0,Wunderground v.1.15,2013-06-27 08:09:00,
2013-06-27 01:18:00,62.1,55.2,30.00,South,184,0.0,0.0,78,0.00,,,0.00,0,Wunderground v.1.15,2013-06-27 08:18:00,
2013-06-27 01:28:00,62.0,55.1,30.00,South,184,0.0,0.0,78,0.00,,,0.00,0,Wunderground v.1.15,2013-06-27 08:28:00,
2013-06-27 01:38:00,62.1,54.8,30.00,South,184,0.0,0.0,77,0.00,,,0.00,0,Wunderground v.1.15,2013-06-27 08:38:00,
2013-06-27 01:53:00,62.3,55.0,30.00,South,184,0.0,0.0,77,0.00,,,0.00,0,Wunderground v.1.15,2013-06-27 08:53:00,
2013-06-27 01:58:00,62.3,55.0,30.00,South,184,0.0,0.0,77,0.00,,,0.00,0,Wunderground v.1.15,2013-06-27 08:58:00,
2013-06-27 02:09:00,62.1,55.2,30.00,South,184,0.0,0.0,78,0.00,,,0.00,0,Wunderground v.1.15,2013-06-27 09:09:00,
2013-06-27 02:19:00,62.1,55.2,30.00,South,184,0.0,0.0,78,0.00,,,0.00,0,Wunderground v.1.15,2013-06-27 09:19:00,
2013-06-27 02:29:00,62.1,55.5,30.00,South,184,0.0,0.0,79,0.00,,,0.00,0,Wunderground v.1.15,2013-06-27 09:29:00,
2013-06-27 02:44:00,62.3,56.0,30.00,South,182,0.0,0.0,80,0.00,,,0.00,0,Wunderground v.1.15,2013-06-27 09:44:00,
2013-06-27 02:49:00,62.3,56.0,30.00,South,184,0.0,0.0,80,0.00,,,0.00,0,Wunderground v.1.15,2013-06-27 09:49:00,
2013-06-27 02:59:00,62.1,56.2,30.00,South,184,0.0,0.0,81,0.00,,,0.00,0,Wunderground v.1.15,2013-06-27 09:59:00,
2013-06-27 03:12:00,62.1,56.9,29.99,South,179,0.0,0.0,83,0.00,,,0.00,0,Wunderground v.1.15,2013-06-27 10:12:00,
2013-06-27 03:18:00,62.0,57.1,29.99,South,178,0.0,0.0,84,0.00,,,0.00,0,Wunderground v.1.15,2013-06-27 10:18:00,
2013-06-27 03:33:00,61.8,57.2,29.99,South,185,0.0,0.0,85,0.00,,,0.00,0,Wunderground v.1.15,2013-06-27 10:33:00,
2013-06-27 03:38:00,61.8,57.2,29.99,South,185,0.0,0.0,85,0.00,,,0.00,0,Wunderground v.1.15,2013-06-27 10:38:00,
2013-06-27 03:48:00,61.8,57.2,29.99,South,185,0.0,0.0,85,0.00,,,0.00,0,Wunderground v.1.15,2013-06-27 10:48:00,
2013-06-27 03:58:00,61.8,57.9,29.99,South,184,0.0,0.0,87,0.00,,,0.00,0,Wunderground v.1.15,2013-06-27 10:58:00,
2013-06-27 04:09:00,61.8,58.2,29.99,South,182,0.0,0.0,88,0.00,,,0.01,0,Wunderground v.1.15,2013-06-27 11:09:00,
2013-06-27 04:19:00,61.6,58.3,29.99,South,182,0.0,1.0,89,0.00,,,0.01,0,Wunderground v.1.15,2013-06-27 11:19:00,
2013-06-27 04:29:00,61.5,58.8,29.99,South,178,1.0,1.0,91,0.00,,,0.02,0,Wunderground v.1.15,2013-06-27 11:29:00,
2013-06-27 04:39:00,61.3,59.0,29.99,South,176,0.0,1.0,92,0.00,,,0.02,0,Wunderground v.1.15,2013-06-27 11:39:00,
2013-06-27 04:49:00,61.3,59.3,29.99,South,178,0.0,0.0,93,0.00,,,0.02,0,Wunderground v.1.15,2013-06-27 11:49:00,
2013-06-27 04:59:00,61.3,59.3,29.99,South,176,0.0,0.0,93,0.00,,,0.03,0,Wunderground v.1.15,2013-06-27 11:59:00,
2013-06-27 05:09:00,61.2,59.5,29.99,South,176,0.0,0.0,94,0.00,,,0.03,0,Wunderground v.1.15,2013-06-27 12:09:00,
2013-06-27 05:18:00,61.2,59.5,29.99,South,176,0.0,0.0,94,0.00,,,0.04,0,Wunderground v.1.15,2013-06-27 12:18:00,
2013-06-27 05:28:00,61.2,59.5,29.99,South,175,0.0,0.0,94,0.00,,,0.04,5,Wunderground v.1.15,2013-06-27 12:28:00,
2013-06-27 05:38:00,61.0,59.6,29.99,South,175,0.0,0.0,95,0.00,,,0.05,7,Wunderground v.1.15,2013-06-27 12:38:00,
2013-06-27 05:48:00,61.0,59.6,29.99,South,175,0.0,0.0,95,0.00,,,0.05,9,Wunderground v.1.15,2013-06-27 12:48:00,
2013-06-27 05:59:00,61.2,59.8,29.99,South,175,0.0,0.0,95,0.00,,,0.06,11,Wunderground v.1.15,2013-06-27 12:59:00,
2013-06-27 06:09:00,61.2,59.8,30.00,South,174,0.0,0.0,95,0.00,,,0.06,16,Wunderground v.1.15,2013-06-27 13:09:00,
2013-06-27 06:19:00,61.2,60.1,30.00,South,175,0.0,0.0,96,0.00,,,0.06,32,Wunderground v.1.15,2013-06-27 13:19:00,
2013-06-27 06:29:00,61.3,60.2,30.00,South,174,0.0,0.0,96,0.00,,,0.06,30,Wunderground v.1.15,2013-06-27 13:29:00,
2013-06-27 06:39:00,61.0,59.9,30.01,South,175,0.0,0.0,96,0.00,,,0.07,32,Wunderground v.1.15,2013-06-27 13:39:00,
2013-06-27 06:49:00,60.4,59.0,30.01,South,175,0.0,0.0,95,0.00,,,0.07,39,Wunderground v.1.15,2013-06-27 13:49:00,
2013-06-27 06:59:00,60.2,59.1,30.01,South,176,0.0,0.0,96,0.00,,,0.07,46,Wunderground v.1.15,2013-06-27 13:59:00,
2013-06-27 07:14:00,59.9,58.8,30.01,South,175,0.0,0.0,96,0.00,,,0.08,51,Wunderground v.1.15,2013-06-27 14:14:00,
2013-06-27 07:23:00,59.9,58.8,30.01,South,175,0.0,0.0,96,0.00,,,0.08,48,Wunderground v.1.15,2013-06-27 14:23:00,
2013-06-27 07:29:00,60.1,59.0,30.01,South,175,0.0,0.0,96,0.00,,,0.08,65,Wunderground v.1.15,2013-06-27 14:29:00,
2013-06-27 07:38:00,60.9,60.0,30.02,South,178,0.0,0.0,97,0.00,,,0.08,123,Wunderground v.1.15,2013-06-27 14:38:00,
2013-06-27 07:48:00,61.6,60.7,30.02,South,179,0.0,0.0,97,0.00,,,0.08,93,Wunderground v.1.15,2013-06-27 14:48:00,
2013-06-27 08:03:00,61.3,60.2,30.02,SSE,147,1.0,2.0,96,0.00,,,0.08,106,Wunderground v.1.15,2013-06-27 15:03:00,
2013-06-27 08:09:00,61.3,60.2,30.02,SSE,147,1.0,2.0,96,0.00,,,0.08,83,Wunderground v.1.15,2013-06-27 15:09:00,
2013-06-27 08:19:00,61.3,60.2,30.03,SSE,147,0.0,0.0,96,0.00,,,0.08,95,Wunderground v.1.15,2013-06-27 15:19:00,
2013-06-27 08:29:00,61.3,59.9,30.03,SSE,147,0.0,2.0,95,0.00,,,0.08,90,Wunderground v.1.15,2013-06-27 15:29:00,
2013-06-27 08:39:00,61.5,60.1,30.03,SSE,147,1.0,1.0,95,0.00,,,0.08,81,Wunderground v.1.15,2013-06-27 15:39:00,
2013-06-27 08:53:00,61.8,60.4,30.03,SE,144,1.0,1.0,95,0.00,,,0.09,99,Wunderground v.1.15,2013-06-27 15:53:00,
2013-06-27 08:59:00,61.8,60.4,30.03,SE,145,1.0,1.0,95,0.00,,,0.09,95,Wunderground v.1.15,2013-06-27 15:59:00,
2013-06-27 09:09:00,62.0,60.6,30.04,SE,144,0.0,1.0,95,0.00,,,0.09,120,Wunderground v.1.15,2013-06-27 16:09:00,
2013-06-27 09:18:00,62.0,60.6,30.04,SE,144,1.0,1.0,95,0.00,,,0.09,162,Wunderground v.1.15,2013-06-27 16:18:00,
2013-06-27 09:28:00,62.1,60.4,30.04,SE,126,1.0,2.0,94,0.00,,,0.09,139,Wunderground v.1.15,2013-06-27 16:28:00,
2013-06-27 09:38:00,62.4,60.9,30.05,ESE,117,1.0,2.0,95,0.00,,,0.09,150,Wunderground v.1.15,2013-06-27 16:38:00,
2013-06-27 09:49:00,62.6,60.8,30.05,ESE,119,1.0,2.0,94,0.00,,,0.09,222,Wunderground v.1.15,2013-06-27 16:49:00,
2013-06-27 09:59:00,62.9,61.1,30.05,East,100,2.0,2.0,94,0.00,,,0.09,211,Wunderground v.1.15,2013-06-27 16:59:00,
2013-06-27 10:09:00,63.2,61.1,30.05,ESE,102,1.0,2.0,93,0.00,,,0.09,202,Wunderground v.1.15,2013-06-27 17:09:00,
2013-06-27 10:23:00,63.7,61.3,30.06,ESE,102,1.0,1.0,92,0.00,,,0.09,197,Wunderground v.1.15,2013-06-27 17:23:00,
2013-06-27 10:29:00,63.7,61.0,30.06,East,100,1.0,1.0,91,0.00,,,0.09,220,Wunderground v.1.15,2013-06-27 17:29:00,
2013-06-27 10:39:00,64.2,61.5,30.06,East,83,2.0,3.0,91,0.00,,,0.09,230,Wunderground v.1.15,2013-06-27 17:39:00,
2013-06-27 10:49:00,64.3,61.9,30.06,East,93,2.0,2.0,92,0.00,,,0.09,222,Wunderground v.1.15,2013-06-27 17:49:00,
2013-06-27 10:59:00,64.5,61.8,30.06,East,93,1.0,1.0,91,0.00,,,0.10,238,Wunderground v.1.15,2013-06-27 17:59:00,
2013-06-27 11:09:00,64.5,61.8,30.07,East,93,0.0,0.0,91,0.00,,,0.10,280,Wunderground v.1.15,2013-06-27 18:09:00,
2013-06-27 11:18:00,64.7,61.4,30.07,ESE,104,0.0,2.0,89,0.00,,,0.10,266,Wunderground v.1.15,2013-06-27 18:18:00,
2013-06-27 11:28:00,64.5,61.2,30.07,ESE,104,1.0,1.0,89,0.00,,,0.11,252,Wunderground v.1.15,2013-06-27 18:28:00,
2013-06-27 11:38:00,64.7,61.1,30.07,ESE,104,1.0,1.0,88,0.00,,,0.11,253,Wunderground v.1.15,2013-06-27 18:38:00,
2013-06-27 11:48:00,64.7,61.1,30.08,ESE,104,1.0,3.0,88,0.00,,,0.11,234,Wunderground v.1.15,2013-06-27 18:48:00,
2013-06-27 11:59:00,65.2,61.6,30.08,ESE,106,0.0,0.0,88,0.00,,,0.11,253,Wunderground v.1.15,2013-06-27 18:59:00,
2013-06-27 12:09:00,65.5,61.5,30.08,ESE,112,0.0,1.0,87,0.00,,,0.11,299,Wunderground v.1.15,2013-06-27 19:09:00,
2013-06-27 12:19:00,65.6,61.0,30.08,ESE,112,0.0,1.0,85,0.00,,,0.11,289,Wunderground v.1.15,2013-06-27 19:19:00,
2013-06-27 12:29:00,66.0,60.7,30.08,ESE,121,1.0,1.0,83,0.00,,,0.11,259,Wunderground v.1.15,2013-06-27 19:29:00,
2013-06-27 12:39:00,66.8,61.5,30.08,ESE,123,0.0,1.0,83,0.00,,,0.11,318,Wunderground v.1.15,2013-06-27 19:39:00,
2013-06-27 12:49:00,66.8,60.4,30.08,SE,126,1.0,2.0,80,0.00,,,0.11,384,Wunderground v.1.15,2013-06-27 19:49:00,
2013-06-27 12:59:00,67.1,60.4,30.08,SSE,162,1.0,1.0,79,0.00,,,0.11,355,Wunderground v.1.15,2013-06-27 19:59:00,
2013-06-27 13:09:00,67.1,61.1,30.08,SSW,198,1.0,2.0,81,0.00,,,0.11,322,Wunderground v.1.15,2013-06-27 20:09:00,
2013-06-27 13:22:00,66.8,61.5,30.09,South,182,2.0,2.0,83,0.00,,,0.11,227,Wunderground v.1.15,2013-06-27 20:22:00,
2013-06-27 13:33:00,66.3,60.3,30.09,South,189,1.0,1.0,81,0.00,,,0.11,223,Wunderground v.1.15,2013-06-27 20:33:00,
2013-06-27 13:38:00,66.0,60.3,30.09,South,189,1.0,1.0,82,0.00,,,0.11,183,Wunderground v.1.15,2013-06-27 20:38:00,
2013-06-27 13:48:00,66.1,60.4,30.09,South,189,0.0,1.0,82,0.00,,,0.11,227,Wunderground v.1.15,2013-06-27 20:48:00,
2013-06-27 13:59:00,66.6,60.9,30.09,South,189,0.0,0.0,82,0.00,,,0.11,215,Wunderground v.1.15,2013-06-27 20:59:00,
2013-06-27 14:09:00,67.1,61.4,30.09,South,189,0.0,1.0,82,0.00,,,0.11,336,Wunderground v.1.15,2013-06-27 21:09:00,
2013-06-27 14:19:00,67.6,60.5,30.09,SE,145,1.0,1.0,78,0.00,,,0.11,245,Wunderground v.1.15,2013-06-27 21:19:00,
2013-06-27 14:24:00,67.8,61.0,30.09,SE,145,2.0,2.0,79,0.00,,,0.11,294,Wunderground v.1.15,2013-06-27 21:24:00,
2013-06-27 14:29:00,68.1,61.0,30.09,SSE,151,1.0,2.0,78,0.00,,,0.11,289,Wunderground v.1.15,2013-06-27 21:29:00,
2013-06-27 14:39:00,68.6,60.7,30.10,SSE,151,0.0,1.0,76,0.00,,,0.11,195,Wunderground v.1.15,2013-06-27 21:39:00,
2013-06-27 15:00:00,69.1,60.8,30.10,SSE,148,1.0,3.0,75,0.00,,,0.11,289,Wunderground v.1.15,2013-06-27 22:00:00,
2013-06-27 15:14:00,69.6,60.2,30.10,SE,138,2.0,2.0,72,0.00,,,0.11,538,Wunderground v.1.15,2013-06-27 22:14:00,
2013-06-27 15:23:00,70.1,60.3,30.10,SE,137,1.0,2.0,71,0.00,,,0.11,269,Wunderground v.1.15,2013-06-27 22:23:00,
2013-06-27 15:28:00,69.9,60.5,30.10,SE,137,2.0,2.0,72,0.00,,,0.11,296,Wunderground v.1.15,2013-06-27 22:28:00,
2013-06-27 15:38:00,70.3,61.2,30.11,SE,143,1.0,2.0,73,0.00,,,0.11,185,Wunderground v.1.15,2013-06-27 22:38:00,
2013-06-27 15:49:00,70.1,61.0,30.11,SE,143,1.0,1.0,73,0.00,,,0.11,225,Wunderground v.1.15,2013-06-27 22:49:00,
2013-06-27 15:59:00,70.3,60.4,30.11,South,189,1.0,1.0,71,0.00,,,0.11,192,Wunderground v.1.15,2013-06-27 22:59:00,
2013-06-27 16:04:00,70.3,60.8,30.11,South,189,1.0,1.0,72,0.00,,,0.11,188,Wunderground v.1.15,2013-06-27 23:04:00,
2013-06-27 16:09:00,70.3,60.8,30.11,SE,130,1.0,3.0,72,0.00,,,0.11,215,Wunderground v.1.15,2013-06-27 23:09:00,
2013-06-27 16:19:00,70.4,60.5,30.11,SE,131,2.0,2.0,71,0.00,,,0.11,195,Wunderground v.1.15,2013-06-27 23:19:00,
2013-06-27 16:29:00,70.3,60.4,30.11,SE,133,1.0,1.0,71,0.00,,,0.11,194,Wunderground v.1.15,2013-06-27 23:29:00,
2013-06-27 16:39:00,70.4,60.5,30.12,SSE,165,2.0,2.0,71,0.00,,,0.11,246,Wunderground v.1.15,2013-06-27 23:39:00,
2013-06-27 16:54:00,70.3,61.2,30.12,South,189,2.0,2.0,73,0.00,,,0.11,347,Wunderground v.1.15,2013-06-27 23:54:00,
2013-06-27 16:59:00,70.4,60.9,30.12,SSW,206,3.0,3.0,72,0.00,,,0.11,296,Wunderground v.1.15,2013-06-27 23:59:00,
2013-06-27 17:14:00,70.4,61.3,30.12,SSE,148,2.0,2.0,73,0.00,,,0.11,150,Wunderground v.1.15,2013-06-28 00:14:00,
2013-06-27 17:23:00,70.1,61.0,30.12,South,175,2.0,2.0,73,0.00,,,0.11,86,Wunderground v.1.15,2013-06-28 00:23:00,
2013-06-27 17:38:00,69.3,61.4,30.13,South,181,1.0,1.0,76,0.00,,,0.11,46,Wunderground v.1.15,2013-06-28 00:38:00,
2013-06-27 17:49:00,68.6,61.5,30.13,WSW,244,0.0,2.0,78,0.00,,,0.11,65,Wunderground v.1.15,2013-06-28 00:49:00,
2013-06-27 17:58:00,67.8,61.4,30.13,West,267,1.0,2.0,80,0.00,,,0.11,55,Wunderground v.1.15,2013-06-28 00:58:00,
2013-06-27 18:13:00,67.8,61.8,30.13,West,263,1.0,3.0,81,0.00,,,0.11,79,Wunderground v.1.15,2013-06-28 01:13:00,
2013-06-27 18:19:00,67.9,61.5,30.13,SW,229,1.0,3.0,80,0.00,,,0.11,49,Wunderground v.1.15,2013-06-28 01:19:00,
2013-06-27 18:33:00,67.8,61.4,30.13,SSW,200,1.0,1.0,80,0.00,,,0.11,40,Wunderground v.1.15,2013-06-28 01:33:00,
2013-06-27 18:39:00,67.6,61.2,30.13,SSW,200,1.0,2.0,80,0.00,,,0.11,49,Wunderground v.1.15,2013-06-28 01:39:00,
2013-06-27 18:49:00,67.3,60.9,30.13,SSW,200,1.0,1.0,80,0.00,,,0.11,70,Wunderground v.1.15,2013-06-28 01:49:00,
2013-06-27 19:09:00,66.9,60.9,30.13,SSW,199,2.0,4.0,81,0.00,,,0.11,53,Wunderground v.1.15,2013-06-28 02:09:00,
2013-06-27 19:19:00,67.1,61.4,30.14,SSW,203,2.0,3.0,82,0.00,,,0.11,46,Wunderground v.1.15,2013-06-28 02:19:00,
2013-06-27 19:38:00,67.3,61.6,30.13,SSW,199,2.0,2.0,82,0.00,,,0.11,99,Wunderground v.1.15,2013-06-28 02:38:00,
2013-06-27 19:48:00,67.3,60.9,30.14,South,188,3.0,3.0,80,0.00,,,0.11,60,Wunderground v.1.15,2013-06-28 02:48:00,
2013-06-27 20:03:00,67.4,60.7,30.13,South,188,0.0,0.0,79,0.00,,,0.11,28,Wunderground v.1.15,2013-06-28 03:03:00,
2013-06-27 20:13:00,67.4,60.7,30.13,South,188,1.0,1.0,79,0.00,,,0.11,26,Wunderground v.1.15,2013-06-28 03:13:00,
2013-06-27 20:29:00,67.3,60.6,30.13,South,188,0.0,4.0,79,0.00,,,0.11,18,Wunderground v.1.15,2013-06-28 03:29:00,
2013-06-27 20:39:00,67.4,60.3,30.13,South,188,1.0,2.0,78,0.00,,,0.11,25,Wunderground v.1.15,2013-06-28 03:39:00,
2013-06-27 20:49:00,67.4,59.9,30.13,South,188,0.0,2.0,77,0.00,,,0.11,12,Wunderground v.1.15,2013-06-28 03:49:00,
2013-06-27 20:59:00,67.4,60.3,30.13,South,188,0.0,0.0,78,0.00,,,0.11,9,Wunderground v.1.15,2013-06-28 03:59:00,
2013-06-27 21:04:00,67.4,60.3,30.13,South,188,0.0,0.0,78,0.00,,,0.11,9,Wunderground v.1.15,2013-06-28 04:04:00,
2013-06-27 21:09:00,67.3,60.2,30.13,South,188,0.0,1.0,78,0.00,,,0.11,9,Wunderground v.1.15,2013-06-28 04:09:00,
2013-06-27 21:14:00,67.3,60.2,30.13,South,188,0.0,0.0,78,0.00,,,0.11,7,Wunderground v.1.15,2013-06-28 04:14:00,
2013-06-27 21:19:00,67.1,60.0,30.13,South,188,0.0,2.0,78,0.00,,,0.11,7,Wunderground v.1.15,2013-06-28 04:19:00,
2013-06-27 21:28:00,67.1,60.0,30.13,South,188,0.0,0.0,78,0.00,,,0.11,0,Wunderground v.1.15,2013-06-28 04:28:00,
2013-06-27 21:38:00,67.1,60.4,30.14,South,188,0.0,0.0,79,0.00,,,0.11,0,Wunderground v.1.15,2013-06-28 04:38:00,
2013-06-27 21:53:00,66.9,60.2,30.14,South,188,0.0,0.0,79,0.00,,,0.11,0,Wunderground v.1.15,2013-06-28 04:53:00,
2013-06-27 21:58:00,66.9,60.2,30.14,South,188,0.0,0.0,79,0.00,,,0.11,0,Wunderground v.1.15,2013-06-28 04:58:00,
2013-06-27 22:08:00,66.6,60.2,30.14,South,188,0.0,0.0,80,0.00,,,0.11,0,Wunderground v.1.15,2013-06-28 05:08:00,
2013-06-27 22:19:00,66.3,59.6,30.14,South,188,0.0,0.0,79,0.00,,,0.11,0,Wunderground v.1.15,2013-06-28 05:19:00,
2013-06-27 22:33:00,66.3,59.6,30.14,South,188,0.0,0.0,79,0.00,,,0.11,0,Wunderground v.1.15,2013-06-28 05:33:00,
2013-06-27 22:39:00,66.4,59.7,30.14,South,188,0.0,0.0,79,0.00,,,0.11,0,Wunderground v.1.15,2013-06-28 05:39:00,
2013-06-27 22:49:00,66.1,60.1,30.14,South,188,0.0,0.0,81,0.00,,,0.11,0,Wunderground v.1.15,2013-06-28 05:49:00,
2013-06-27 22:59:00,66.0,60.0,30.14,South,188,0.0,0.0,81,0.00,,,0.11,0,Wunderground v.1.15,2013-06-28 05:59:00,
2013-06-27 23:09:00,65.8,60.2,30.14,South,188,0.0,0.0,82,0.00,,,0.11,0,Wunderground v.1.15,2013-06-28 06:09:00,
2013-06-27 23:19:00,65.6,60.3,30.13,South,188,0.0,0.0,83,0.00,,,0.11,0,Wunderground v.1.15,2013-06-28 06:19:00,
2013-06-27 23:33:00,65.3,60.3,30.13,South,188,0.0,0.0,84,0.00,,,0.11,0,Wunderground v.1.15,2013-06-28 06:33:00,
2013-06-27 23:38:00,65.2,60.6,30.13,South,188,0.0,0.0,85,0.00,,,0.11,0,Wunderground v.1.15,2013-06-28 06:38:00,
2013-06-27 23:48:00,65.0,60.4,30.13,South,188,0.0,0.0,85,0.00,,,0.11,0,Wunderground v.1.15,2013-06-28 06:48:00,
2013-06-27 23:58:00,64.7,60.7,30.13,South,188,0.0,0.0,87,0.00,,,0.11,0,Wunderground v.1.15,2013-06-28 06:58:00,